Location: 10033 Water Well
(34.0865°N, 106.8959°W)
Time: 22:12:03
(UTC+00:00)

SAR-Lupe-4 - Pass Details

Date: 13 January 2026
Orbit: 480 x 483 km, 98.1° (Epoch: 10 January)

Event Time Altitude Azimuth Distance (km) Brightness Sun altitude
Rises 00:45:20 0° 148° (SSE) 2,528 7.1 -5.9°
Reaches altitude 10° 00:47:30 10° 138° (SE) 1,653 6.1 -6.3°
Maximum altitude 00:50:43 33° 73° (ENE) 826 4.2 -6.9°
Drops below altitude 10° 00:53:58 10° 8° (N) 1,666 6.0 -7.5°
Sets 00:56:09 0° 359° (N) 2,550 7.0 -8.0°
